User: anonymous   Login
Location: Goodsell Observatory
(44.4617°N, 93.1522°W)
Time: 10:08:14
(UTC-05:00)
Language:

Hubble Space Telescope - Orbit

View from above orbital plane
View from above orbital plane
View from above satellite
View from above satellite

Ground track
Ground track

The orbit data is extracted from the following two-line orbital elements,

1 20580U 90037B   15214.18660074  .00001178  00000-0  64119-4 0  9991
2 20580 028.4689 210.7611 0002922 016.4529 073.8548 15.07587936186757
Epoch (UTC): 02 August 2015 04:28:42
Eccentricity: 0.0002922
inclination: 28.4689°
perigee height: 541 km
apogee height: 545 km
right ascension of ascending node: 210.7611°
argument of perigee: 16.4529°
revolutions per day: 15.07587936
mean anomaly at epoch: 73.8548°
orbit number at epoch: 18675

The dashed part of the orbit path shows where the satellite is in the earth's shadow,  

DLR